TimeEST,TemperatureF,Dew PointF,Humidity,Sea Level PressureIn,VisibilityMPH,Wind Direction,Wind SpeedMPH,Gust SpeedMPH,PrecipitationIn,Events,Conditions,WindDirDegrees,DateUTC
12:15 AM,37.4,33.8,87,30.15,10.0,SE,11.5,-,N/A,,Clear,130,2011-11-27 05:15:00
12:35 AM,37.4,33.8,87,30.16,10.0,SE,8.1,-,N/A,,Clear,130,2011-11-27 05:35:00
12:55 AM,37.4,33.8,87,30.15,10.0,SE,9.2,-,N/A,,Clear,130,2011-11-27 05:55:00
1:15 AM,37.4,33.8,87,30.15,10.0,SE,9.2,-,N/A,,Clear,130,2011-11-27 06:15:00
1:35 AM,37.4,33.8,87,30.15,10.0,SE,9.2,-,N/A,,Clear,130,2011-11-27 06:35:00
1:55 AM,37.4,33.8,87,30.16,10.0,ESE,9.2,-,N/A,,Clear,120,2011-11-27 06:55:00
2:15 AM,35.6,32.0,87,30.16,10.0,ESE,12.7,-,N/A,,Clear,120,2011-11-27 07:15:00
2:35 AM,37.4,32.0,81,30.16,10.0,SE,8.1,-,N/A,,Clear,140,2011-11-27 07:35:00
3:15 AM,37.4,33.8,87,30.14,10.0,SE,12.7,-,N/A,,Clear,140,2011-11-27 08:15:00
3:35 AM,37.4,33.8,87,30.13,10.0,SE,11.5,-,N/A,,Clear,130,2011-11-27 08:35:00
3:55 AM,37.4,33.8,87,30.13,10.0,SE,15.0,-,N/A,,Clear,130,2011-11-27 08:55:00
4:15 AM,37.4,32.0,81,30.13,10.0,SE,12.7,-,N/A,,Clear,140,2011-11-27 09:15:00
4:35 AM,37.4,33.8,87,30.13,10.0,SE,15.0,-,N/A,,Partly Cloudy,130,2011-11-27 09:35:00
5:15 AM,37.4,33.8,87,30.12,10.0,SE,12.7,-,N/A,,Partly Cloudy,140,2011-11-27 10:15:00
5:35 AM,39.2,33.8,81,30.13,10.0,SE,11.5,-,N/A,,Partly Cloudy,130,2011-11-27 10:35:00
5:55 AM,39.2,33.8,81,30.13,10.0,SSE,8.1,-,N/A,,Clear,150,2011-11-27 10:55:00
6:15 AM,39.2,35.6,87,30.13,10.0,SE,13.8,-,N/A,,Clear,130,2011-11-27 11:15:00
6:35 AM,39.2,35.6,87,30.13,10.0,SE,11.5,-,N/A,,Clear,130,2011-11-27 11:35:00
6:55 AM,42.8,35.6,76,30.12,10.0,SE,13.8,18.4,N/A,,Clear,140,2011-11-27 11:55:00
7:15 AM,44.6,35.6,71,30.12,10.0,SSE,13.8,19.6,N/A,,Clear,150,2011-11-27 12:15:00
7:35 AM,46.4,35.6,66,30.13,10.0,SSE,16.1,23.0,N/A,,Clear,160,2011-11-27 12:35:00
8:15 AM,44.6,35.6,71,30.13,10.0,SSE,13.8,18.4,N/A,,Clear,160,2011-11-27 13:15:00
8:35 AM,46.4,35.6,66,30.12,10.0,SSE,12.7,21.9,N/A,,Clear,150,2011-11-27 13:35:00
8:55 AM,46.4,35.6,66,30.13,10.0,SSE,16.1,23.0,N/A,,Clear,150,2011-11-27 13:55:00
9:35 AM,48.2,35.6,62,30.12,10.0,ESE,24.2,-,N/A,,Clear,120,2011-11-27 14:35:00
10:15 AM,48.2,37.4,66,30.12,10.0,SE,16.1,26.5,N/A,,Clear,140,2011-11-27 15:15:00
10:35 AM,48.2,35.6,62,30.12,10.0,SSE,15.0,19.6,N/A,,Clear,150,2011-11-27 15:35:00
10:55 AM,46.4,35.6,66,30.11,10.0,ESE,21.9,-,N/A,,Clear,120,2011-11-27 15:55:00
11:15 AM,46.4,37.4,71,30.11,10.0,ESE,19.6,25.3,N/A,,Clear,120,2011-11-27 16:15:00
11:35 AM,48.2,37.4,66,30.09,10.0,SE,18.4,24.2,N/A,,Clear,130,2011-11-27 16:35:00
11:55 AM,48.2,37.4,66,30.09,10.0,SE,17.3,23.0,N/A,,Clear,130,2011-11-27 16:55:00
12:15 PM,51.8,35.6,54,30.08,10.0,ESE,21.9,25.3,N/A,,Clear,110,2011-11-27 17:15:00
12:55 PM,50.0,37.4,62,30.08,10.0,SE,17.3,23.0,N/A,,Clear,130,2011-11-27 17:55:00
1:15 PM,50.0,37.4,62,30.06,10.0,SE,17.3,23.0,N/A,,Clear,130,2011-11-27 18:15:00
1:35 PM,50.0,37.4,62,30.05,10.0,ESE,18.4,23.0,N/A,,Clear,120,2011-11-27 18:35:00
1:56 PM,50.0,37.4,62,30.05,10.0,ESE,18.4,26.5,N/A,,Clear,120,2011-11-27 18:56:00
2:15 PM,50.0,37.4,62,30.05,10.0,ESE,16.1,24.2,N/A,,Clear,120,2011-11-27 19:15:00
2:35 PM,50.0,37.4,62,30.04,10.0,ESE,19.6,26.5,N/A,,Scattered Clouds,110,2011-11-27 19:35:00
2:55 PM,50.0,37.4,62,30.04,10.0,ESE,16.1,23.0,N/A,,Partly Cloudy,120,2011-11-27 19:55:00
3:15 PM,51.8,37.4,58,30.05,10.0,ESE,18.4,24.2,N/A,,Clear,120,2011-11-27 20:15:00
3:35 PM,50.0,37.4,62,30.03,10.0,ESE,19.6,-,N/A,,Clear,120,2011-11-27 20:35:00
3:55 PM,48.2,37.4,66,30.04,10.0,SE,17.3,-,N/A,,Clear,130,2011-11-27 20:55:00
4:15 PM,48.2,37.4,66,30.03,10.0,SE,16.1,24.2,N/A,,Clear,140,2011-11-27 21:15:00
4:35 PM,48.2,37.4,66,30.03,10.0,SE,18.4,21.9,N/A,,Clear,130,2011-11-27 21:35:00
5:15 PM,46.4,37.4,71,30.03,10.0,SE,16.1,23.0,N/A,,Clear,140,2011-11-27 22:15:00
5:35 PM,46.4,37.4,71,30.05,10.0,SE,16.1,23.0,N/A,,Clear,140,2011-11-27 22:35:00
5:55 PM,46.4,37.4,71,30.03,10.0,SE,17.3,26.5,N/A,,Scattered Clouds,140,2011-11-27 22:55:00
6:15 PM,48.2,37.4,66,30.05,10.0,SE,16.1,24.2,N/A,,Mostly Cloudy,140,2011-11-27 23:15:00
6:35 PM,48.2,37.4,66,30.05,10.0,SE,16.1,23.0,N/A,,Scattered Clouds,140,2011-11-27 23:35:00
6:55 PM,48.2,37.4,66,30.04,10.0,ESE,21.9,-,N/A,,Clear,120,2011-11-27 23:55:00
7:15 PM,48.2,37.4,66,30.04,10.0,SE,17.3,23.0,N/A,,Clear,140,2011-11-28 00:15:00
7:35 PM,48.2,37.4,66,30.04,10.0,SE,13.8,-,N/A,,Scattered Clouds,130,2011-11-28 00:35:00
7:55 PM,48.2,37.4,66,30.03,10.0,SE,13.8,19.6,N/A,,Mostly Cloudy,130,2011-11-28 00:55:00
8:15 PM,48.2,37.4,66,30.02,10.0,ESE,19.6,26.5,N/A,,Scattered Clouds,120,2011-11-28 01:15:00
8:35 PM,48.2,39.2,71,30.02,10.0,SE,15.0,25.3,N/A,,Clear,130,2011-11-28 01:35:00
8:55 PM,48.2,39.2,71,30.02,10.0,ESE,16.1,-,N/A,,Clear,120,2011-11-28 01:55:00
9:15 PM,48.2,39.2,71,30.01,10.0,ESE,15.0,-,N/A,,Partly Cloudy,120,2011-11-28 02:15:00
9:35 PM,48.2,39.2,71,30.02,10.0,ESE,12.7,18.4,N/A,,Mostly Cloudy,120,2011-11-28 02:35:00
9:55 PM,48.2,39.2,71,30.02,10.0,ESE,12.7,-,N/A,,Overcast,120,2011-11-28 02:55:00
10:15 PM,48.2,39.2,71,30.01,10.0,SE,9.2,-,N/A,,Scattered Clouds,130,2011-11-28 03:15:00
10:35 PM,48.2,39.2,71,30.00,10.0,ESE,11.5,-,N/A,,Clear,120,2011-11-28 03:35:00
10:55 PM,48.2,39.2,71,30.01,10.0,ESE,12.7,-,N/A,,Clear,120,2011-11-28 03:55:00
11:15 PM,48.2,39.2,71,30.01,10.0,ESE,10.4,-,N/A,,Clear,120,2011-11-28 04:15:00
11:35 PM,46.4,41.0,81,30.00,10.0,SE,8.1,-,N/A,,Mostly Cloudy,130,2011-11-28 04:35:00
11:55 PM,46.4,39.2,76,29.99,10.0,SE,5.8,-,N/A,,Partly Cloudy,140,2011-11-28 04:55:00